| time (UTC) | temp F | wind direction | speed MPH | gust MPH | rain 1hr in | rain 24hr in | rain mn in | humidity % | barometer mb |
| 20260507193107 | 65 | 180 | 0.0 | 0.0 | 0.00 | 0.00 | 0.30 | 7 | |
| 20260507192107 | 65 | 158 | 2.0 | 0.0 | 0.00 | 0.00 | 0.30 | 7 | |
| 20260507191108 | 64 | 225 | 1.0 | 0.0 | 0.00 | 0.00 | 0.30 | 7 | |
| 20260507190107 | 63 | 270 | 1.0 | 0.0 | 0.00 | 0.00 | 0.30 | 7 | |
| 20260507185107 | 63 | 270 | 1.0 | 0.0 | 0.00 | 0.00 | 0.30 | 7 | |
| 20260507184107 | 63 | 180 | 1.0 | 0.0 | 0.00 | 0.00 | 0.30 | 7 | |
| 20260507183108 | 64 | 203 | 1.0 | 0.0 | 0.00 | 0.00 | 0.30 | 7 | |
| 20260507182107 | 64 | 203 | 2.0 | 0.0 | 0.00 | 0.00 | 0.30 | 7 | |
| 20260507181107 | 63 | 203 | 1.0 | 0.0 | 0.00 | 0.00 | 0.30 | 7 | |
| 20260507180107 | 63 | 180 | 0.0 | 0.0 | 0.00 | 0.00 | 0.30 | 7 | |
| 20260507175107 | 63 | 158 | 1.0 | 0.0 | 0.00 | 0.00 | 0.30 | 7 | |
| 20260507174107 | 62 | 180 | 2.0 | 0.0 | 0.00 | 0.00 | 0.30 | 7 | |
| 20260507173107 | 62 | 203 | 3.0 | 0.0 | 0.00 | 0.00 | 0.30 | 8 | |
| 20260507172107 | 62 | 203 | 3.0 | 0.0 | 0.00 | 0.00 | 0.30 | 8 | |
| 20260507171108 | 61 | 203 | 0.0 | 0.0 | 0.00 | 0.00 | 0.30 | 8 | |
| 20260507170107 | 60 | 158 | 1.0 | 0.0 | 0.00 | 0.00 | 0.30 | 8 | |
| 20260507165107 | 60 | 270 | 3.0 | 0.0 | 0.00 | 0.00 | 0.30 | 8 | |
| 20260507164106 | 60 | 270 | 1.0 | 0.0 | 0.00 | 0.00 | 0.30 | 8 | |
| 20260507163106 | 60 | 203 | 0.0 | 0.0 | 0.00 | 0.00 | 0.30 | 8 | |
| 20260507162107 | 60 | 90 | 0.0 | 0.0 | 0.00 | 0.00 | 0.30 | 8 | |
| 20260507161108 | 60 | 68 | 1.0 | 0.0 | 0.00 | 0.00 | 0.30 | 8 | |
| 20260507160107 | 60 | 113 | 0.0 | 0.0 | 0.00 | 0.00 | 0.30 | 8 | |
| 20260507155106 | 60 | 135 | 2.0 | 0.0 | 0.00 | 0.00 | 0.30 | 8 | |
| 20260507154106 | 60 | 90 | 1.0 | 0.0 | 0.00 | 0.00 | 0.30 | 8 | |
| 20260507153107 | 60 | 180 | 2.0 | 0.0 | 0.00 | 0.00 | 0.30 | 8 | |
| 20260507152106 | 59 | 113 | 0.0 | 0.0 | 0.00 | 0.00 | 0.30 | 8 | |
| 20260507151107 | 59 | 248 | 0.0 | 0.0 | 0.00 | 0.00 | 0.30 | 8 | |
| 20260507150107 | 59 | 113 | 0.0 | 0.0 | 0.00 | 0.00 | 0.30 | 8 | |
| 20260507145107 | 58 | 180 | 3.0 | 0.0 | 0.00 | 0.00 | 0.30 | 8 | |
| 20260507144107 | 58 | 203 | 1.0 | 0.0 | 0.00 | 0.00 | 0.30 | 9 | |
| 20260507143108 | 57 | 113 | 2.0 | 0.0 | 0.00 | 0.00 | 0.30 | 9 | |
| 20260507142107 | 57 | 113 | 1.0 | 0.0 | 0.00 | 0.00 | 0.30 | 9 | |
| 20260507141107 | 57 | 180 | 3.0 | 0.0 | 0.00 | 0.00 | 0.30 | 9 | |
| 20260507140107 | 57 | 113 | 2.0 | 0.0 | 0.00 | 0.00 | 0.30 | 9 | |
| 20260507135106 | 56 | 203 | 0.0 | 0.0 | 0.00 | 0.00 | 0.30 | 9 | |
| 20260507134106 | 56 | 113 | 1.0 | 0.0 | 0.00 | 0.00 | 0.30 | 9 | |
| 20260507133106 | 56 | 180 | 1.0 | 0.0 | 0.00 | 0.00 | 0.30 | 9 | |
| 20260507132108 | 56 | 113 | 1.0 | 0.0 | 0.00 | 0.00 | 0.30 | 9 | |
| 20260507131107 | 56 | 113 | 3.0 | 0.0 | 0.00 | 0.00 | 0.30 | 9 | |
| 20260507130107 | 56 | 135 | 3.0 | 0.0 | 0.00 | 0.00 | 0.30 | 9 | |
| 20260507125106 | 56 | 90 | 1.0 | 0.0 | 0.00 | 0.00 | 0.30 | 9 | |
| 20260507124107 | 56 | 90 | 4.0 | 0.0 | 0.00 | 0.00 | 0.30 | 9 | |
| 20260507123107 | 56 | 90 | 3.0 | 0.0 | 0.00 | 0.00 | 0.30 | 9 | |
| 20260507122107 | 56 | 90 | 4.0 | 0.0 | 0.00 | 0.00 | 0.30 | 9 | |
| 20260507121108 | 56 | 135 | 1.0 | 0.0 | 0.00 | 0.00 | 0.30 | 9 | |
| 20260507120108 | 56 | 180 | 1.0 | 0.0 | 0.00 | 0.00 | 0.30 | 9 | |
| 20260507115107 | 56 | 68 | 3.0 | 0.0 | 0.00 | 0.00 | 0.30 | 9 | |
| 20260507114107 | 57 | 113 | 4.0 | 0.0 | 0.00 | 0.00 | 0.30 | 9 | |
| 20260507113107 | 57 | 135 | 1.0 | 0.0 | 0.00 | 0.00 | 0.30 | 9 | |
| 20260507112106 | 57 | 135 | 2.0 | 0.0 | 0.00 | 0.00 | 0.30 | 9 | |
| 20260507111108 | 57 | 135 | 3.0 | 0.0 | 0.00 | 0.00 | 0.30 | 9 | |
| 20260507110106 | 57 | 113 | 0.0 | 0.0 | 0.00 | 0.00 | 0.30 | 9 | |
| 20260507105106 | 57 | 45 | 2.0 | 0.0 | 0.00 | 0.00 | 0.30 | 9 | |
| 20260507104107 | 57 | 113 | 2.0 | 0.0 | 0.00 | 0.00 | 0.30 | 9 | |
| 20260507103107 | 57 | 180 | 3.0 | 0.0 | 0.00 | 0.00 | 0.30 | 9 | |
| 20260507102107 | 57 | 180 | 0.0 | 0.0 | 0.00 | 0.00 | 0.30 | 9 | |
| 20260507101107 | 57 | 225 | 1.0 | 0.0 | 0.00 | 0.00 | 0.30 | 9 | |
| 20260507100107 | 58 | 180 | 1.0 | 0.0 | 0.00 | 0.00 | 0.30 | 9 | |
| 20260507095107 | 58 | 113 | 0.0 | 0.0 | 0.00 | 0.00 | 0.30 | 9 | |
| 20260507094106 | 58 | 68 | 1.0 | 0.0 | 0.00 | 0.00 | 0.30 | 9 | |
| 20260507093107 | 58 | 248 | 1.0 | 0.0 | 0.00 | 0.00 | 0.30 | 9 | |
| 20260507092106 | 58 | 135 | 1.0 | 0.0 | 0.00 | 0.00 | 0.30 | 9 | |
| 20260507091107 | 58 | 113 | 0.0 | 0.0 | 0.00 | 0.00 | 0.30 | 9 | |
| 20260507090107 | 58 | 180 | 0.0 | 0.0 | 0.00 | 0.00 | 0.30 | 9 | |
| 20260507085108 | 58 | 203 | 0.0 | 0.0 | 0.00 | 0.00 | 0.30 | 9 | |
| 20260507084108 | 58 | 158 | 0.0 | 0.0 | 0.00 | 0.00 | 0.30 | 9 | |
| 20260507083108 | 58 | 180 | 0.0 | 0.0 | 0.00 | 0.00 | 0.30 | 9 | |
| 20260507082108 | 58 | 180 | 0.0 | 0.0 | 0.00 | 0.00 | 0.30 | 9 | |
| 20260507081107 | 58 | 180 | 0.0 | 0.0 | 0.00 | 0.00 | 0.30 | 9 | |
| 20260507080108 | 58 | 180 | 1.0 | 0.0 | 0.00 | 0.00 | 0.30 | 9 | |
| 20260507075107 | 58 | 180 | 0.0 | 0.0 | 0.00 | 0.00 | 0.30 | 9 | |
| 20260507074106 | 58 | 180 | 1.0 | 0.0 | 0.00 | 0.00 | 0.30 | 9 | |
| 20260507073108 | 58 | 135 | 1.0 | 0.0 | 0.00 | 0.00 | 0.30 | 9 | |
| 20260507072107 | 58 | 203 | 0.0 | 0.0 | 0.00 | 0.00 | 0.30 | 9 | |
| 20260507071107 | 59 | 225 | 0.0 | 0.0 | 0.00 | 0.00 | 0.30 | 9 | |
| 20260507070106 | 59 | 203 | 0.0 | 0.0 | 0.00 | 0.00 | 0.30 | 9 | |
| 20260507065107 | 59 | 180 | 1.0 | 0.0 | 0.00 | 0.00 | 0.30 | 8 | |
| 20260507064108 | 59 | 203 | 0.0 | 0.0 | 0.00 | 0.00 | 0.30 | 8 | |
| 20260507063107 | 59 | 203 | 0.0 | 0.0 | 0.00 | 0.00 | 0.30 | 8 | |
| 20260507062107 | 59 | 203 | 1.0 | 0.0 | 0.00 | 0.00 | 0.30 | 8 | |
| 20260507061106 | 59 | 158 | 1.0 | 0.0 | 0.00 | 0.00 | 0.30 | 8 | |
| 20260507060107 | 59 | 113 | 1.0 | 0.0 | 0.00 | 0.00 | 0.30 | 8 | |
| 20260507055107 | 59 | 135 | 0.0 | 0.0 | 0.00 | 0.00 | 0.30 | 8 | |
| 20260507054108 | 60 | 113 | 1.0 | 0.0 | 0.00 | 0.00 | 0.30 | 8 | |
| 20260507053107 | 60 | 158 | 0.0 | 0.0 | 0.00 | 0.00 | 0.30 | 8 | |
| 20260507052107 | 60 | 180 | 0.0 | 0.0 | 0.00 | 0.00 | 0.30 | 8 | |
| 20260507051108 | 60 | 203 | 0.0 | 0.0 | 0.00 | 0.00 | 0.30 | 8 | |
| 20260507050107 | 60 | 203 | 2.0 | 0.0 | 0.00 | 0.00 | 0.30 | 8 | |
| 20260507045106 | 60 | 180 | 0.0 | 0.0 | 0.00 | 0.00 | 0.30 | 8 | |
| 20260507044107 | 60 | 180 | 2.0 | 0.0 | 0.00 | 0.00 | 0.30 | 8 | |
| 20260507043107 | 60 | 135 | 1.0 | 0.0 | 0.00 | 0.00 | 0.30 | 8 | |
| 20260507042107 | 60 | 158 | 0.0 | 0.0 | 0.00 | 0.00 | 0.30 | 8 | |
| 20260507041107 | 60 | 158 | 1.0 | 0.0 | 0.00 | 0.00 | 0.30 | 8 | |
| 20260507040107 | 60 | 180 | 1.0 | 0.0 | 0.00 | 0.00 | 0.30 | 8 | |
| 20260507035108 | 60 | 90 | 1.0 | 0.0 | 0.00 | 0.00 | 0.30 | 8 | |
| 20260507034108 | 60 | 113 | 1.0 | 0.0 | 0.00 | 0.00 | 0.30 | 8 | |
| 20260507033107 | 60 | 180 | 1.0 | 0.0 | 0.00 | 0.00 | 0.30 | 8 | |
| 20260507032107 | 60 | 180 | 0.0 | 0.0 | 0.00 | 0.00 | 0.30 | 8 | |
| 20260507031107 | 60 | 113 | 0.0 | 0.0 | 0.00 | 0.00 | 0.30 | 8 | |
| 20260507030107 | 60 | 203 | 0.0 | 0.0 | 0.00 | 0.00 | 0.30 | 8 | |
| 20260507025107 | 60 | 113 | 0.0 | 0.0 | 0.00 | 0.00 | 0.30 | 8 | |
| 20260507024107 | 60 | 180 | 0.0 | 0.0 | 0.00 | 0.00 | 0.30 | 8 | |
| 20260507023106 | 60 | 90 | 3.0 | 0.0 | 0.00 | 0.00 | 0.30 | 8 | |
| 20260507022107 | 60 | 113 | 2.0 | 0.0 | 0.00 | 0.00 | 0.30 | 8 | |
| 20260507021107 | 60 | 180 | 0.0 | 0.0 | 0.00 | 0.00 | 0.30 | 8 | |
| 20260507020106 | 60 | 113 | 0.0 | 0.0 | 0.00 | 0.00 | 0.30 | 8 | |
| 20260507015107 | 60 | 158 | 0.0 | 0.0 | 0.00 | 0.00 | 0.30 | 8 | |
| 20260507014105 | 60 | 113 | 1.0 | 0.0 | 0.00 | 0.00 | 0.30 | 8 | |
| 20260507013108 | 60 | 135 | 1.0 | 0.0 | 0.00 | 0.00 | 0.30 | 8 | |
| 20260507012108 | 61 | 180 | 0.0 | 0.0 | 0.00 | 0.00 | 0.30 | 8 | |
| 20260507011107 | 61 | 113 | 2.0 | 0.0 | 0.00 | 0.00 | 0.30 | 8 | |
| 20260507010107 | 61 | 203 | 0.0 | 0.0 | 0.00 | 0.00 | 0.30 | 8 | |
| 20260507005106 | 61 | 113 | 1.0 | 0.0 | 0.00 | 0.00 | 0.29 | 8 | |
| 20260507004107 | 61 | 158 | 0.0 | 0.0 | 0.00 | 0.00 | 0.30 | 8 | |
| 20260507003106 | 61 | 113 | 1.0 | 0.0 | 0.00 | 0.00 | 0.29 | 8 | |
| 20260507002107 | 61 | 113 | 1.0 | 0.0 | 0.00 | 0.00 | 0.29 | 8 | |
| 20260507001106 | 61 | 180 | 0.0 | 0.0 | 0.00 | 0.00 | 0.29 | 8 | |
| 20260507000107 | 61 | 90 | 1.0 | 0.0 | 0.00 | 0.00 | 0.29 | 8 | |
| 20260506235108 | 61 | 180 | 1.0 | 0.0 | 0.00 | 0.00 | 0.29 | 8 | |
| 20260506234107 | 62 | 23 | 2.0 | 0.0 | 0.00 | 0.00 | 0.29 | 8 | |
| 20260506233108 | 62 | 113 | 0.0 | 0.0 | 0.00 | 0.00 | 0.29 | 8 | |
| 20260506232107 | 62 | 113 | 1.0 | 0.0 | 0.00 | 0.00 | 0.29 | 8 | |
| 20260506231107 | 62 | 113 | 0.0 | 0.0 | 0.00 | 0.00 | 0.29 | 8 | |
| 20260506230108 | 62 | 158 | 0.0 | 0.0 | 0.00 | 0.00 | 0.29 | 8 | |
| 20260506225107 | 62 | 203 | 0.0 | 0.0 | 0.00 | 0.00 | 0.29 | 8 | |
| 20260506224107 | 62 | 0 | 0.0 | 0.0 | 0.00 | 0.00 | 0.29 | 8 | |
| 20260506223108 | 61 | 225 | 0.0 | 0.0 | 0.00 | 0.00 | 0.29 | 8 | |
| 20260506222106 | 60 | 203 | 0.0 | 0.0 | 0.00 | 0.00 | 0.29 | 8 | |
| 20260506221107 | 60 | 158 | 2.0 | 0.0 | 0.00 | 0.00 | 0.29 | 8 | |
| 20260506220107 | 60 | 90 | 2.0 | 0.0 | 0.00 | 0.00 | 0.29 | 8 | |
| 20260506215107 | 60 | 158 | 3.0 | 0.0 | 0.00 | 0.00 | 0.29 | 8 | |
| 20260506214107 | 60 | 113 | 0.0 | 0.0 | 0.00 | 0.00 | 0.29 | 8 | |
| 20260506213107 | 60 | 158 | 2.0 | 0.0 | 0.00 | 0.00 | 0.29 | 8 | |
| 20260506212108 | 60 | 68 | 4.0 | 0.0 | 0.00 | 0.00 | 0.29 | 8 | |
| 20260506211107 | 61 | 113 | 1.0 | 0.0 | 0.00 | 0.00 | 0.29 | 8 | |
| 20260506210106 | 61 | 158 | 0.0 | 0.0 | 0.00 | 0.00 | 0.29 | 8 | |
| 20260506205107 | 61 | 158 | 1.0 | 0.0 | 0.00 | 0.00 | 0.29 | 8 | |
| 20260506204107 | 61 | 68 | 2.0 | 0.0 | 0.00 | 0.00 | 0.29 | 8 | |
| 20260506203108 | 61 | 113 | 2.0 | 0.0 | 0.00 | 0.00 | 0.29 | 8 | |
| 20260506202107 | 61 | 68 | 2.0 | 0.0 | 0.00 | 0.00 | 0.29 | 8 | |
| 20260506201107 | 61 | 225 | 3.0 | 0.0 | 0.00 | 0.00 | 0.29 | 8 | |
| 20260506200108 | 61 | 203 | 0.0 | 0.0 | 0.00 | 0.00 | 0.29 | 8 | |
| 20260506195108 | 62 | 90 | 2.0 | 0.0 | 0.00 | 0.00 | 0.29 | 8 | |
| 20260506194108 | 62 | 113 | 2.0 | 0.0 | 0.00 | 0.00 | 0.29 | 8 |